[Date Prev][Date Next][Thread Prev][Thread Next] - [Date Index][Thread Index][Author Index]

2 Line ISS Keps 725



ISS
1 25544U 98067A   05206.13594569  .00010359  00000-0  82286-4 0  9869
2 25544 051.6450 066.5606 0003292 154.5401 348.7612 15.71924210381654
----
Via the sarex mailing list at AMSAT.ORG courtesy of AMSAT-NA.
To unsubscribe, send "unsubscribe sarex" to Majordomo@amsat.org



AMSAT Top AMSAT Home